Tracking 21076 objects as of 10-Aug-2020
HD Live streaming from Space Station
objects crossing your sky now
Track the most recent launched group of Starlink satellites

FENGYUN 1C DEB

Track FENGYUN 1C DEB now!
10-day predictions


NORAD ID: 41001
Int'l Code: 1999-025EXF
Perigee: 803.2 km
Apogee: 862.2 km
Inclination: 99.0 °
Period: 101.4 minutes
Semi major axis: 7203 km
RCS: Unknown
Launch date: May 10, 1999
Source: People's Republic of China (PRC)
Launch site: Taiyaun Space Center, China (TSC)

Note: This is SATELLITE DEBRIS
aabbcc
Your satellite tracking list
Your tracking list is empty




NASA's NSSDC Master Catalog

Two Line Element Set (TLE):
1 41001U 99025EXF 19365.86818350 +.00000852 +00000-0 +41911-3 0  9998
2 41001 099.0088 021.5277 0040970 167.0782 316.4315 14.19928793301186
Source of the keplerian elements: AFSPC